Tracking 19969 objects as of 12-Nov-2019
Live streaming from Space Station
objects crossing your sky now
Track the group of recently launched Starlink satellites

NOAA 16 DEB

Track NOAA 16 DEB now!
10-day predictions


NORAD ID: 41076
Int'l Code: 2000-055AK
Perigee: 560.7 km
Apogee: 856.4 km
Inclination: 99.2 °
Period: 98.8 minutes
Semi major axis: 7079 km
RCS: Unknown
Launch date: September 21, 2000
Source: United States (US)
Launch site: AIR FORCE WESTERN TEST RANGE (AFWTR)

Note: This is SATELLITE DEBRIS
aabbcc
Your satellite tracking list
Your tracking list is empty




NASA's NSSDC Master Catalog

Two Line Element Set (TLE):
1 41076U 00055AK  19315.14220217  .00000881  00000-0  15505-3 0  9992
2 41076  99.1950 190.5481 0208843  55.4376 306.6334 14.57466804210290
Source of the keplerian elements: AFSPC